STAR ONE C2

Last updated on Tue Oct 08 2024 00:02:38 GMT+0000 (Coordinated Universal Time)

1 32768U 08018B 24281.31559705 -.00000265 00000+0 00000+0 0 9997 2 32768 0.0432 9.5786 0002659 179.6912 235.8217 1.00273251 60453
UTC large
Height (km)
Speed (km/s)
/
Latitude / Longitude
Inclination (degrees)
Orbital Period (minutes)
Azimuth
Elevation
Range (km)
Doppler Factor

Next 0 passes for location: London (51.5072 / 0.1276)

Sorry there are no passes over London.